Find Starlink 5088

NORAD ID: 54000 Int'l Des: 2022-125 Owner: SPXS Country: US Constellation: starlink operational
LEOCIRCULAR

Live Position

Loading 3D Globe...

About Starlink 5088

Description loading...

Upcoming Passes

Passes for default location (London). Set your location on the main map for personalized predictions.

Altitude History

Loading altitude history...

Two-Line Element Set

1 54000U 22125AN 26106.20429538 -.00000021 00000-0 16774-4 0 9992
2 54000 53.2197 35.8974 0001541 87.5042 272.6126 15.08834145195269
Epoch: Apr 16, 2026 • Age: 10 hours

Current Status

Altitude 542.8 km
Velocity 7.59 km/s
Sub-Earth Point -10.38°S, 147.61°E
Launch Date Oct 5, 2022
Age 3.5 years
Type internet

Technical Details

Classification Payload
Mass 305.00 kg
Dry Mass 290.00 kg
Total Mass 305.00 kg
Length 0.20 m
Diameter 2.80 m
Span 9.00 m
Shape Box + pan
Manufacturer SPXS
Bus Type Starlink
Phase Status In Orbit
Owner/State SPXS/US

Most Searched